Temperature
18 18 17 17 17 17 16 16 16 16 16 16 16 15 15 15 15 15 15 15 15 15 15 15 15 15 15 15 15 15 15 15 15 15 15 15 14 14 14 14 14 14 14
18 18 18 17 17 17 16 16 16 16 16 16 15 15 15 15 15 15 15 14 14 14 14 14 14 15 14 15 15 15 15 15 15 15 14 14 14 14 14 14 14 14 14
18 18 18 17 17 17 16 16 16 16 16 16 15 15 15 15 15 15 14 14 14 14 14 14 14 14 14 14 14 15 14 14 14 14 14 14 14 14 14 14 14 14 14
18 18 17 17 17 16 16 16 16 16 16 15 15 15 15 15 15 14 14 14 14 14 14 14 14 14 14 14 14 14 14 14 14 14 14 14 14 14 14 13 13 13 13
18 18 17 17 16 16 16 16 16 16 15 15 15 15 15 15 15 14 14 14 14 14 14 14 14 14 14 14 14 14 13 14 14 14 14 14 13 13 13 13 13 13 13
18 18 17 17 16 16 16 16 16 15 15 15 15 15 15 15 15 15 14 14 14 14 13 13 13 14 14 13 13 13 13 13 13 13 13 13 13 13 13 13 13 13 12
18 17 17 17 16 16 16 16 15 15 15 15 15 15 15 15 15 14 14 14 14 14 13 13 13 13 13 13 13 13 13 13 13 13 13 13 13 13 12 12 12 12 12
17 17 17 16 16 16 16 16 16 15 15 15 15 14 14 14 14 14 14 13 13 13 13 13 13 13 12 12 12 12 12 13 13 13 13 12 12 12 12 12 12 12 12
17 17 17 16 16 16 15 15 15 15 15 15 14 14 14 14 14 14 14 13 13 13 13 13 13 12 12 12 12 12 12 12 12 12 12 12 12 12 12 12 12 12 12
17 16 16 16 16 15 15 15 15 15 15 14 14 14 14 14 14 14 13 13 13 13 13 13 13 12 12 12 12 12 12 12 12 12 12 12 12 12 12 12 11 12 12
16 16 16 16 16 15 15 15 15 15 14 14 14 14 14 14 13 13 13 13 13 13 13 13 12 12 12 12 12 12 12 12 12 12 12 12 11 11 11 11 11 11 11
16 16 16 16 15 15 15 15 15 15 14 14 14 14 13 13 13 13 13 13 12 12 12 12 12 12 12 12 12 12 12 12 11 11 11 11 11 11 11 11 11 11 11
16 16 15 15 15 15 15 15 15 14 14 14 14 14 13 13 13 13 12 12 12 12 12 12 12 12 11 11 11 11 11 11 11 11 11 11 11 11 11 11 11 11 11
16 15 15 15 15 15 15 15 14 14 14 14 14 13 13 13 12 12 12 12 12 12 11 11 12 11 11 11 11 11 11 11 11 11 11 11 11 11 10 10 10 10 10
15 15 15 15 15 15 15 14 14 14 13 13 13 13 13 13 12 12 12 12 11 11 11 11 11 11 11 11 11 11 11 11 11 11 11 11 11 10 10 10 10 10 10
15 15 15 15 15 15 14 14 14 14 13 13 13 13 12 12 12 12 12 12 11 11 11 11 11 11 11 11 11 11 11 11 11 10 10 10 10 10 10 10 10 10 10
15 15 15 15 15 14 14 14 14 13 13 13 13 12 12 12 12 12 11 11 11 11 11 11 11 11 11 11 11 11 11 11 10 10 10 10 10 10 10 10 10 10 10
14 14 14 14 14 14 14 14 14 14 13 13 13 12 12 12 11 11 11 11 11 11 11 11 11 11 11 11 11 11 11 10 10 10 10 10 10 10 10 10 10 10 10
14 14 14 14 14 14 14 14 13 13 13 13 13 12 12 12 11 11 11 10 11 11 11 10 10 10 10 10 10 10 10 10 10 10 10 10 10 10 10 10 9 9 9
14 14 13 13 14 13 13 13 13 13 13 12 12 12 12 11 11 11 11 10 10 10 10 10 10 10 10 10 10 10 10 10 10 10 10 9 9 9 9 9 9 9 9
14 13 13 13 13 13 13 13 13 13 12 12 12 12 11 11 11 11 10 10 10 10 10 10 10 10 10 10 10 10 10 10 9 9 9 9 9 9 9 9 9 9 8
14 13 13 13 13 13 13 12 12 12 12 12 11 11 11 11 11 10 10 10 10 10 9 9 10 10 9 9 9 9 9 9 9 9 9 9 9 8 8 8 8 8 8
13 13 13 13 13 12 12 12 12 12 12 12 11 11 11 11 10 10 10 10 9 9 9 9 9 9 9 9 9 9 9 9 9 8 8 8 8 8 8 8 8 8 8
13 13 13 13 12 12 12 12 12 12 11 11 11 11 10 10 10 10 10 9 9 9 9 9 8 8 8 8 8 8 8 8 8 8 8 8 8 8 8 8 7 8 8
13 13 12 12 12 12 12 11 11 11 11 11 10 10 10 10 10 9 9 9 9 9 8 8 8 8 8 8 8 8 8 8 8 8 7 7 7 7 7 7 7 7 7
12 12 12 12 12 11 11 11 11 11 10 10 10 10 9 9 9 9 9 8 8 8 8 8 8 8 7 7 7 7 8 8 8 8 7 7 7 7 7 7 7 7 7
Wind_Speed
5 5 4 3 3 3 2 2 1 1 1 1 1 1 1 1 1 2 3 2 2 2 2 2 2 3 3 2 2 3 3 3 4 3 1 1 1 2 1 3 4 5 7
5 5 5 4 3 3 2 2 2 1 1 1 1 1 2 2 2 2 3 2 2 3 3 2 2 2 3 4 3 3 2 2 4 4 3 2 3 2 2 2 2 3 4
6 5 5 4 4 3 2 2 2 1 1 1 0 1 1 2 2 2 2 3 3 3 3 3 3 3 3 3 3 3 2 2 3 3 3 2 2 2 2 2 2 2 3
6 5 5 4 3 3 3 2 2 1 1 1 0 1 1 1 2 2 2 2 2 3 3 3 3 3 3 3 3 3 3 2 2 3 2 2 2 2 2 2 2 2 2
6 5 4 4 3 3 3 2 2 1 1 1 1 1 1 1 1 2 3 2 2 2 2 2 1 2 3 3 3 2 2 2 2 2 2 2 2 2 3 2 2 2 2
6 5 4 4 4 3 3 2 2 2 1 1 1 1 1 1 2 2 4 2 2 2 2 2 1 1 1 1 2 3 4 3 3 3 3 2 2 3 2 2 3 3 2
5 5 5 4 4 4 3 2 2 2 2 1 1 1 1 1 2 1 3 3 2 2 2 2 2 1 1 0 1 2 1 1 2 4 4 4 3 3 3 3 3 2 2
5 5 5 4 4 4 3 3 2 2 2 2 1 1 1 1 1 1 3 3 1 1 1 1 2 1 1 1 1 1 2 2 3 4 4 4 3 2 4 4 3 3 3
5 5 5 4 4 4 4 3 3 2 2 2 2 1 1 0 1 1 4 2 1 2 1 1 2 1 2 1 2 2 2 2 2 1 1 1 1 0 2 3 3 3 3
5 5 4 4 4 3 3 3 2 2 3 3 2 2 1 1 2 1 4 3 2 2 2 1 2 0 2 1 3 3 4 3 3 1 2 3 3 3 4 5 4 4 3
5 4 4 4 4 3 2 2 2 2 2 2 2 2 2 2 4 3 3 3 3 3 2 1 1 3 2 3 4 4 3 4 3 3 2 3 3 3 3 4 3 4 4
5 4 4 4 3 3 2 2 2 2 3 3 2 2 2 2 1 3 4 5 6 3 3 2 1 3 4 5 4 2 3 4 4 3 3 2 2 3 3 3 3 3 3
5 4 4 3 3 2 3 2 3 3 2 2 2 2 1 1 2 4 5 5 5 4 2 2 1 3 5 5 6 6 5 4 3 3 3 2 3 2 2 3 3 4 4
4 4 4 3 3 3 2 2 2 2 2 1 2 2 2 1 1 1 2 2 4 4 3 2 5 6 6 3 3 5 4 3 3 3 3 3 2 3 3 3 3 3 4
4 3 3 3 2 2 2 1 1 1 1 2 2 2 2 2 0 1 3 2 3 3 3 4 3 3 3 3 3 3 3 4 4 4 3 3 3 3 3 3 3 3 4
3 3 3 2 2 2 2 2 2 2 3 3 2 3 2 1 2 0 2 2 2 3 4 4 3 3 3 3 3 3 3 4 4 4 4 4 4 4 3 3 4 4 5
3 2 2 2 2 2 2 2 2 3 5 6 6 4 3 2 1 2 3 3 4 4 4 4 4 4 4 4 4 4 4 3 3 4 4 5 5 4 4 4 4 4 5
3 3 3 2 2 2 2 2 2 2 2 3 5 8 7 6 5 4 4 3 3 4 4 4 4 4 4 4 4 4 4 3 3 4 4 4 4 4 4 5 5 5 5
3 2 2 2 2 2 2 2 2 3 3 3 2 3 7 7 7 6 5 4 3 3 3 4 4 4 4 4 4 4 4 4 4 4 4 4 4 5 5 5 5 5 6
2 1 3 3 3 2 3 3 2 2 3 3 3 2 1 2 3 3 4 4 4 4 4 4 4 5 4 4 4 4 4 4 5 5 5 5 5 5 5 6 6 5 5
2 3 4 4 3 3 3 3 3 3 3 3 3 1 1 3 3 3 3 3 4 4 4 5 5 5 4 4 4 5 5 5 5 5 5 5 5 5 5 5 6 6 5
3 3 3 3 3 2 2 3 3 3 3 3 3 1 3 4 3 3 3 3 3 3 4 5 5 4 4 4 5 5 5 4 4 4 5 5 5 5 6 5 5 6 6
3 3 3 3 2 2 3 3 3 3 3 3 3 2 2 3 3 3 3 3 3 4 4 4 5 4 3 4 4 4 5 4 4 5 6 6 5 6 6 6 7 7 7
3 3 3 3 2 3 3 3 3 3 3 3 3 3 3 3 4 4 4 3 3 4 4 4 4 5 5 5 4 4 4 4 5 5 7 7 7 6 6 6 7 8 8
3 3 3 3 3 3 3 3 3 3 3 3 3 4 4 4 4 4 3 3 4 4 4 4 4 4 5 6 5 4 4 4 5 6 6 6 7 7 7 7 7 7 7
3 3 3 3 2 3 3 3 3 3 3 3 3 3 4 4 3 3 3 4 4 4 4 4 5 5 5 5 4 2 2 2 4 6 7 6 6 5 6 6 6 6 7
Wind_Direction
174 175 174 178 185 193 199 219 234 258 274 279 294 295 286 287 282 280 289 289 286 291 282 268 265 291 287 280 260 255 253 256 256 268 269 186 221 272 218 220 203 186 171
169 171 170 173 181 194 195 213 222 233 250 265 289 298 302 307 302 290 291 299 296 295 297 295 281 264 263 274 274 266 265 259 253 255 258 230 215 223 208 216 203 180 167
166 171 168 177 184 195 198 206 210 218 247 269 270 298 302 310 299 292 294 301 303 307 310 306 299 289 277 277 271 271 263 253 248 247 243 234 229 212 198 189 175 151 171
168 172 171 183 189 193 192 199 203 211 222 251 250 270 278 290 295 291 291 304 308 307 310 312 311 301 290 283 266 266 263 261 239 241 241 234 231 212 212 202 179 169 188
172 177 175 179 183 185 182 188 195 208 213 215 233 252 262 254 291 295 281 280 293 299 305 304 326 18 15 336 313 294 275 262 250 244 241 232 219 214 219 220 201 188 187
172 175 172 174 179 183 187 190 194 203 220 213 218 248 278 311 30 331 291 283 279 281 284 294 263 151 104 84 10 3 347 291 282 269 260 258 249 240 226 221 216 213 230
176 175 171 173 178 187 189 182 200 218 225 232 238 254 286 343 39 306 284 283 283 297 299 295 291 52 157 253 159 211 252 304 294 277 274 271 266 250 231 226 230 235 236
179 180 179 182 181 181 187 192 205 220 229 246 257 275 293 358 77 266 271 245 281 304 292 284 292 340 348 332 265 252 253 239 248 256 261 262 258 251 225 227 225 215 221
178 184 182 188 187 187 191 200 208 217 224 227 224 232 255 19 68 279 274 255 252 264 264 263 261 252 83 340 263 267 274 262 182 143 331 298 27 160 221 223 219 210 228
181 183 178 187 191 196 199 207 208 213 223 228 203 204 207 218 146 227 272 272 275 265 237 201 115 22 112 207 249 265 274 283 291 233 207 211 213 194 200 227 228 229 241
175 174 176 180 185 186 191 199 209 216 218 229 217 205 197 200 169 190 247 275 286 277 265 242 137 143 186 224 257 269 281 289 270 250 235 224 208 207 211 215 230 239 243
169 169 170 181 190 175 183 198 211 221 214 216 218 230 201 189 197 196 225 251 291 284 285 290 84 141 198 224 240 264 276 273 269 260 248 237 230 226 226 224 224 235 246
169 172 176 182 188 189 193 200 214 217 234 233 238 247 249 235 183 192 216 233 256 266 286 25 47 206 216 215 215 228 237 252 265 269 263 255 250 245 237 222 224 224 228
173 179 183 191 195 187 209 215 230 242 253 250 257 260 253 240 276 283 258 236 223 241 261 203 199 218 239 261 208 212 232 250 258 263 265 261 258 237 232 235 244 247 244
184 190 198 197 192 190 188 195 232 226 253 263 263 260 259 247 232 353 297 285 292 302 286 260 252 242 235 239 250 246 244 235 236 242 252 249 238 239 242 240 239 248 252
197 202 209 204 196 208 191 185 150 201 158 197 268 287 270 14 101 312 296 300 293 282 275 268 268 270 271 270 267 259 251 255 253 249 248 251 245 240 239 247 247 246 252
209 206 220 222 210 217 218 233 219 193 193 193 197 214 240 245 221 240 256 265 254 240 252 266 270 270 270 274 275 276 276 269 259 252 246 244 244 244 241 240 246 248 254
212 192 217 231 234 235 237 251 256 261 248 231 198 190 200 210 219 228 230 245 243 224 256 277 282 281 276 276 281 286 286 285 273 264 255 250 246 248 251 246 247 250 252
220 220 236 248 248 252 262 265 263 265 274 274 273 186 186 200 205 209 210 248 271 273 274 278 280 284 289 288 287 285 282 280 278 275 269 265 262 261 258 259 258 252 253
228 207 248 251 251 255 263 270 272 271 279 284 280 282 201 231 244 208 221 246 266 276 282 282 284 288 288 286 284 279 276 274 271 267 270 268 262 264 263 262 262 258 255
233 213 219 245 254 262 269 271 277 281 288 291 290 303 233 271 269 260 254 250 261 275 281 280 278 276 278 280 283 281 279 280 278 275 275 274 271 267 265 259 253 254 254
246 242 239 252 254 258 275 277 276 279 286 291 299 285 192 253 271 266 263 264 274 277 279 279 276 277 283 280 283 283 281 286 290 289 288 285 280 273 267 262 257 256 256
249 250 247 247 249 234 253 268 274 280 284 288 287 290 280 283 284 282 279 280 283 282 282 280 281 279 283 284 283 283 280 275 279 286 285 281 279 275 272 264 257 256 252
245 243 248 247 248 254 259 271 277 281 282 281 281 284 282 277 279 283 284 284 284 284 284 285 286 292 296 295 294 289 292 297 289 275 275 276 275 276 270 263 261 259 254
250 245 250 250 249 255 261 272 284 293 296 297 293 289 286 282 280 286 292 295 295 296 296 291 292 293 291 291 301 315 354 346 312 295 277 272 271 272 272 265 262 264 259
255 259 265 264 259 262 264 268 280 288 292 297 297 296 293 291 291 291 294 298 299 298 298 296 300 299 295 289 310 348 358 320 298 290 283 272 271 273 274 269 265 263 262
Height
1524 1524 1525 1525 1525 1525 1525 1525 1525 1524 1523 1522 1522 1521 1521 1520 1519 1518 1518 1517 1516 1516 1515 1514 1514 1513 1514 1514 1514 1514 1514 1514 1514 1515 1515 1514 1514 1514 1514 1514 1515 1515 1516
1522 1523 1523 1524 1524 1524 1524 1524 1524 1523 1523 1522 1521 1521 1520 1519 1518 1518 1517 1516 1515 1514 1514 1513 1512 1512 1511 1512 1512 1512 1512 1512 1512 1512 1512 1512 1511 1511 1511 1512 1513 1513 1514
1521 1521 1522 1523 1523 1523 1523 1523 1522 1522 1521 1521 1520 1519 1519 1518 1517 1517 1516 1515 1514 1513 1512 1511 1510 1510 1509 1510 1509 1510 1510 1510 1510 1510 1510 1510 1510 1510 1509 1510 1511 1511 1513
1519 1520 1520 1521 1521 1522 1521 1521 1521 1520 1520 1519 1519 1518 1518 1517 1516 1515 1515 1514 1513 1512 1511 1510 1509 1508 1508 1508 1508 1507 1508 1508 1508 1508 1508 1508 1508 1508 1508 1508 1509 1509 1511
1517 1518 1519 1519 1520 1520 1520 1519 1519 1519 1519 1518 1518 1517 1516 1516 1515 1514 1513 1512 1511 1510 1509 1508 1508 1507 1506 1506 1507 1506 1506 1506 1506 1506 1506 1506 1506 1506 1506 1506 1507 1508 1508
1515 1516 1517 1517 1517 1517 1518 1518 1517 1517 1517 1516 1516 1516 1515 1514 1513 1512 1511 1511 1509 1509 1508 1507 1507 1506 1505 1505 1504 1504 1504 1504 1504 1504 1504 1504 1504 1505 1504 1505 1505 1505 1506
1513 1514 1515 1515 1515 1516 1516 1516 1515 1515 1515 1515 1514 1514 1513 1513 1512 1511 1510 1509 1508 1507 1506 1506 1506 1505 1504 1503 1503 1502 1502 1502 1502 1502 1502 1502 1502 1502 1502 1502 1503 1503 1503
1511 1511 1512 1513 1513 1513 1514 1513 1513 1513 1513 1513 1513 1512 1512 1511 1510 1509 1509 1508 1507 1505 1504 1504 1503 1503 1502 1502 1502 1501 1501 1500 1499 1500 1500 1499 1500 1500 1500 1500 1500 1500 1501
1509 1510 1510 1511 1511 1512 1512 1511 1511 1511 1511 1511 1510 1510 1509 1509 1508 1508 1507 1507 1505 1504 1503 1502 1501 1501 1500 1499 1499 1499 1499 1499 1498 1497 1497 1497 1497 1497 1497 1498 1498 1498 1499
1507 1508 1508 1509 1509 1510 1510 1509 1509 1509 1509 1509 1508 1507 1506 1506 1506 1505 1505 1505 1504 1503 1501 1500 1499 1499 1498 1497 1497 1497 1497 1497 1497 1496 1495 1494 1494 1494 1495 1495 1496 1497 1497
1505 1506 1506 1506 1507 1508 1508 1507 1506 1506 1506 1506 1505 1504 1504 1503 1503 1502 1502 1502 1502 1501 1500 1499 1498 1497 1496 1495 1495 1495 1494 1494 1494 1494 1493 1493 1493 1493 1492 1493 1494 1495 1495
1503 1503 1504 1504 1505 1505 1505 1504 1504 1504 1504 1503 1503 1502 1502 1501 1500 1500 1500 1499 1499 1499 1498 1498 1497 1495 1494 1493 1493 1492 1492 1492 1492 1492 1491 1491 1491 1491 1491 1491 1491 1492 1492
1500 1501 1502 1503 1503 1503 1502 1502 1502 1501 1502 1501 1501 1501 1501 1500 1499 1498 1498 1497 1496 1496 1496 1495 1494 1493 1492 1491 1490 1489 1489 1489 1489 1489 1489 1489 1489 1489 1489 1488 1488 1489 1489
1498 1499 1500 1500 1500 1500 1500 1500 1500 1499 1499 1499 1499 1499 1498 1498 1497 1496 1496 1495 1495 1494 1493 1492 1491 1491 1490 1489 1488 1487 1487 1487 1487 1486 1486 1486 1486 1486 1486 1486 1486 1486 1487
1496 1497 1498 1498 1498 1498 1498 1497 1497 1497 1497 1497 1497 1496 1496 1495 1494 1493 1493 1492 1492 1491 1490 1490 1490 1489 1488 1487 1487 1486 1485 1485 1484 1484 1484 1484 1484 1484 1484 1484 1483 1484 1484
1495 1495 1495 1496 1496 1496 1495 1495 1494 1494 1493 1493 1493 1493 1492 1492 1491 1491 1490 1489 1489 1488 1488 1488 1487 1487 1486 1485 1485 1484 1483 1482 1482 1481 1481 1481 1481 1481 1481 1481 1481 1481 1481
1493 1493 1493 1493 1493 1493 1493 1492 1492 1491 1490 1490 1490 1489 1489 1488 1488 1488 1487 1486 1486 1486 1485 1485 1484 1484 1483 1483 1482 1482 1481 1480 1479 1478 1478 1478 1477 1477 1477 1477 1477 1478 1477
1491 1491 1491 1491 1491 1491 1490 1490 1489 1489 1489 1487 1487 1486 1486 1486 1485 1485 1484 1484 1483 1483 1482 1482 1482 1481 1480 1480 1479 1478 1478 1477 1476 1476 1475 1475 1474 1474 1474 1474 1474 1474 1474
1489 1489 1489 1489 1489 1488 1488 1487 1487 1486 1486 1485 1485 1484 1483 1482 1482 1482 1481 1481 1481 1480 1479 1479 1479 1478 1477 1476 1476 1475 1474 1474 1473 1473 1472 1471 1471 1471 1470 1470 1470 1470 1470
1486 1486 1486 1487 1486 1486 1485 1485 1484 1483 1483 1482 1482 1481 1480 1480 1479 1479 1478 1478 1478 1477 1477 1476 1476 1475 1474 1474 1473 1472 1471 1471 1470 1469 1468 1468 1467 1467 1466 1466 1466 1466 1465
1484 1484 1483 1483 1484 1483 1482 1482 1481 1481 1480 1480 1480 1479 1478 1477 1477 1476 1476 1475 1475 1474 1474 1473 1473 1472 1471 1470 1469 1469 1468 1467 1466 1466 1465 1464 1463 1463 1462 1462 1462 1462 1461
1482 1481 1481 1481 1481 1480 1479 1479 1479 1478 1478 1477 1477 1476 1475 1475 1475 1474 1473 1473 1472 1471 1471 1470 1470 1469 1468 1467 1466 1465 1465 1464 1463 1462 1461 1460 1459 1459 1458 1458 1457 1457 1457
1478 1479 1478 1478 1478 1477 1476 1476 1476 1476 1475 1475 1474 1474 1473 1472 1472 1472 1471 1470 1469 1469 1468 1467 1466 1465 1464 1463 1462 1461 1460 1460 1459 1458 1457 1456 1455 1455 1454 1453 1453 1453 1453
1476 1476 1476 1475 1475 1475 1474 1474 1474 1473 1473 1472 1472 1471 1470 1470 1469 1469 1468 1467 1466 1466 1465 1464 1463 1461 1460 1459 1458 1458 1456 1455 1454 1454 1452 1452 1451 1450 1449 1449 1449 1448 1448
1474 1473 1473 1473 1473 1472 1472 1472 1471 1471 1470 1470 1469 1469 1468 1467 1466 1465 1465 1464 1463 1462 1461 1460 1459 1458 1457 1456 1454 1453 1452 1451 1450 1449 1448 1447 1447 1446 1445 1444 1444 1444 1444
1471 1471 1471 1470 1470 1470 1469 1469 1469 1468 1468 1467 1466 1466 1465 1464 1463 1462 1461 1460 1459 1459 1458 1457 1455 1454 1453 1452 1451 1449 1448 1447 1446 1445 1444 1444 1443 1442 1441 1440 1440 1440 1440